DELTA 1 DEB, 10769

Orbit data source: Space-Track

DELTA 1 DEB, 10769 is space debris in SSO originally from a launch on Thu, 29 Jul 1976 UTC launched from the Air Force Western Test Range (AFWTR). Debris objects in space refer to the collection of defunct objects orbiting the Earth. Examples of debris include non-operational satellites, rocket bodies, and fragments generated from explosions, collisions, or faulty payload assembly.

Loading next visibility...
Identifier
10769, 1976-077BS
Orbit
SSO
Country
Flag of USUS
Related business
Manufacturer
Unknown
Mission
Spacecraft
Bus & Motor
Unknown
Mass
Unknown
Launch date (UTC)
1976-07-29 (50 years ago)
Launch vehicle
Unknown
Launch site
Air Force Western Test Range (AFWTR)
Object type
Payload
Rocket body
Debris
Shape & HBR
Unknown shape, 0.1 m
Radar Cross Section
Small (<0.1 m²)

Expand to show TLE details & history
Last TLE update: 11 hours ago

TLE from 11 hours ago
0 DELTA 1 DEB
1 10769U 76077BS  26118.86312944  .00000023  00000-0  42497-3 0  9999
2 10769 101.8321  89.3438 0095098 216.3226 171.4167 12.52762477273270
Epoch: 2026-04-28T20:42Z
TLE epoch observation values (Epoch: 2026-04-28T20:42:54.383Z)
Latitude
27.2952°
Longitude
-84.39101°
Altitude
1,529.671 km
Speed
7.07 km/s
True Right ascension
05h 32m 40s
True Declination
27° 10' 08"
Sunlit
Object was in daylight at epoch
Visualization orbit readout
Latitude
Unknown
Longitude
Unknown
Altitude
Unknown
Speed
Unknown
Apparent Right ascension
Unknown
Apparent Declination
Unknown
Sunlit
N/A
Visualization observer readout
Local Sidereal Time
14:44:24
Azimuth
Unknown
Elevation
Unknown
Doppler factor
Unknown
Orbital elements
Apogee altitude
1,524.958 km
Perigee altitude
1,376.06 km
Semi-major axis
7,828.646 km
Eccentricity
0.00951
Inclination
101.8321°
RAAN
89.3438°
Arg. of periapsis
216.3226°
True anomaly
171.57745°
Mean anomaly
171.4167°
Eccentric anomaly
171.49726°
Mean motion
3.13338 °/min
Orbital period
114.89 mins
BSTAR
0.00042497
Loading maneuver chart data...
Computing Atmospheric mass density...
Loading historical data...
Loading historical data...
Loading historical data...
Loading historical data...
Loading historical data...
Loading historical data...
Loading historical data...

Documentation

Showing up to 5 results
|